Time,TemperatureF,DewpointF,PressureIn,WindDirection,WindDirectionDegrees,WindSpeedMPH,WindSpeedGustMPH,Humidity,HourlyPrecipIn,Conditions,Clouds,dailyrainin,SoftwareType,DateUTC
2016-12-04 00:05:00,59.8,57.2,29.96,South,176,5.3,9.7,91,-99.99,,,0.00,Rainwise +Telemet,2016-12-04 06:05:00,
2016-12-04 00:10:00,60.0,57.4,29.96,SSE,166,4.2,9.0,91,-99.99,,,0.00,Rainwise +Telemet,2016-12-04 06:10:00,
2016-12-04 00:20:00,60.2,57.9,29.96,South,170,4.5,8.9,92,-99.99,,,0.00,Rainwise +Telemet,2016-12-04 06:20:00,
2016-12-04 00:30:00,60.2,57.9,29.96,South,176,5.1,9.1,92,-99.99,,,0.00,Rainwise +Telemet,2016-12-04 06:30:00,
2016-12-04 00:40:00,60.3,58.3,29.95,South,177,6.7,12.8,93,-99.99,,,0.00,Rainwise +Telemet,2016-12-04 06:40:00,
2016-12-04 00:45:00,60.4,58.7,29.95,South,172,5.1,12.2,94,-99.99,,,0.00,Rainwise +Telemet,2016-12-04 06:45:00,
2016-12-04 00:50:00,60.6,59.2,29.94,South,178,5.5,8.9,95,-99.99,,,0.00,Rainwise +Telemet,2016-12-04 06:50:00,
2016-12-04 01:00:00,60.7,59.0,29.94,SSE,167,4.5,10.5,94,-99.99,,,0.00,Rainwise +Telemet,2016-12-04 07:00:00,
2016-12-04 01:10:00,61.0,59.8,29.94,SSE,165,4.6,8.6,96,-99.99,,,0.00,Rainwise +Telemet,2016-12-04 07:10:00,
2016-12-04 01:20:00,61.2,60.0,29.94,SSE,151,4.5,9.6,96,-99.99,,,0.00,Rainwise +Telemet,2016-12-04 07:20:00,
2016-12-04 01:30:00,61.5,60.3,29.94,SSE,160,5.4,11.0,96,-99.99,,,0.00,Rainwise +Telemet,2016-12-04 07:30:00,
2016-12-04 01:40:00,61.7,60.8,29.95,South,170,4.0,7.5,97,-99.99,,,0.00,Rainwise +Telemet,2016-12-04 07:40:00,
2016-12-04 01:50:00,61.9,60.7,29.95,SSE,163,3.8,8.6,96,-99.99,,,0.01,Rainwise +Telemet,2016-12-04 07:50:00,
2016-12-04 02:00:00,62.1,61.5,29.94,SSE,167,3.6,7.8,98,-99.99,,,0.01,Rainwise +Telemet,2016-12-04 08:00:00,
2016-12-04 02:05:00,62.0,61.4,29.94,SE,134,3.6,5.8,98,-99.99,,,0.01,Rainwise +Telemet,2016-12-04 08:05:00,
2016-12-04 02:10:00,62.2,61.6,29.94,South,180,3.9,6.1,98,-99.99,,,0.02,Rainwise +Telemet,2016-12-04 08:10:00,
2016-12-04 02:20:00,62.2,61.3,29.93,SSE,157,2.0,2.9,97,-99.99,,,0.02,Rainwise +Telemet,2016-12-04 08:20:00,
2016-12-04 02:30:00,62.5,61.9,29.93,ESE,112,1.3,2.6,98,-99.99,,,0.02,Rainwise +Telemet,2016-12-04 08:30:00,
2016-12-04 02:40:00,62.5,62.2,29.93,SSE,157,1.5,2.7,99,-99.99,,,0.03,Rainwise +Telemet,2016-12-04 08:40:00,
2016-12-04 02:50:00,62.6,62.0,29.93,SE,124,0.9,1.4,98,-99.99,,,0.03,Rainwise +Telemet,2016-12-04 08:50:00,
2016-12-04 03:00:00,62.6,62.3,29.93,ESE,112,0.1,0.3,99,-99.99,,,0.03,Rainwise +Telemet,2016-12-04 09:00:00,
2016-12-04 03:09:00,62.7,62.1,0.00,ESE,112,0.0,0.0,98,-99.99,,,0.03,Rainwise +Telemet,2016-12-04 09:09:00,
2016-12-04 03:10:00,62.7,62.1,29.94,ESE,112,0.0,0.0,98,-99.99,,,0.03,Rainwise +Telemet,2016-12-04 09:10:00,
2016-12-04 04:55:00,62.6,62.3,29.93,ENE,67,3.8,4.3,99,-99.99,,,0.03,Rainwise +Telemet,2016-12-04 10:55:00,
2016-12-04 05:00:00,62.2,61.9,29.92,ENE,67,2.4,2.8,99,-99.99,,,0.03,Rainwise +Telemet,2016-12-04 11:00:00,
2016-12-04 05:10:00,61.7,61.4,29.93,ENE,78,1.2,1.7,99,-99.99,,,0.03,Rainwise +Telemet,2016-12-04 11:10:00,
2016-12-04 05:20:00,61.6,61.3,29.93,ENE,67,2.0,2.4,99,-99.99,,,0.03,Rainwise +Telemet,2016-12-04 11:20:00,
2016-12-04 05:30:00,61.3,61.0,29.93,East,90,5.0,5.5,99,-99.99,,,0.03,Rainwise +Telemet,2016-12-04 11:30:00,
2016-12-04 05:40:00,61.2,60.9,29.94,East,90,1.3,1.3,99,-99.99,,,0.03,Rainwise +Telemet,2016-12-04 11:40:00,
2016-12-04 05:50:00,61.2,60.9,29.94,ESE,112,3.7,3.7,99,-99.99,,,0.03,Rainwise +Telemet,2016-12-04 11:50:00,
2016-12-04 06:10:00,61.1,60.8,29.93,SSE,157,2.1,2.1,99,-99.99,,,0.03,Rainwise +Telemet,2016-12-04 12:10:00,
2016-12-04 06:20:00,61.2,60.9,29.93,ESE,112,0.0,0.0,99,-99.99,,,0.03,Rainwise +Telemet,2016-12-04 12:20:00,
2016-12-04 06:25:00,61.2,60.9,29.93,SE,135,1.8,2.1,99,-99.99,,,0.03,Rainwise +Telemet,2016-12-04 12:25:00,
2016-12-04 06:30:00,61.2,60.9,29.94,SE,135,2.1,2.1,99,-99.99,,,0.03,Rainwise +Telemet,2016-12-04 12:30:00,
2016-12-04 06:40:00,61.3,61.0,29.93,SW,225,0.0,0.0,99,-99.99,,,0.03,Rainwise +Telemet,2016-12-04 12:40:00,
2016-12-04 06:45:00,61.3,61.0,29.93,SE,146,0.2,0.4,99,-99.99,,,0.03,Rainwise +Telemet,2016-12-04 12:45:00,
2016-12-04 06:50:00,61.3,61.0,29.93,SSE,157,1.6,1.6,99,-99.99,,,0.03,Rainwise +Telemet,2016-12-04 12:50:00,
2016-12-04 07:00:00,61.3,61.0,0.00,SSE,157,0.0,0.0,99,-99.99,,,0.03,Rainwise +Telemet,2016-12-04 13:00:00,
2016-12-04 07:05:00,61.3,61.0,29.92,SSE,157,0.0,0.0,99,-99.99,,,0.03,Rainwise +Telemet,2016-12-04 13:05:00,
2016-12-04 07:10:00,61.5,61.2,29.92,South,179,0.6,1.0,99,-99.99,,,0.03,Rainwise +Telemet,2016-12-04 13:10:00,
2016-12-04 07:20:00,61.6,61.3,29.93,SSW,202,0.0,0.0,99,-99.99,,,0.03,Rainwise +Telemet,2016-12-04 13:20:00,
2016-12-04 07:30:00,61.7,61.4,29.92,SSW,202,0.0,0.0,99,-99.99,,,0.03,Rainwise +Telemet,2016-12-04 13:30:00,
2016-12-04 07:40:00,62.0,61.7,29.93,SSW,202,0.5,0.7,99,-99.99,,,0.03,Rainwise +Telemet,2016-12-04 13:40:00,
2016-12-04 07:45:00,62.1,61.8,29.93,SW,225,1.8,2.3,99,-99.99,,,0.03,Rainwise +Telemet,2016-12-04 13:45:00,
2016-12-04 07:50:00,62.2,62.2,29.93,SW,225,0.5,1.1,100,-99.99,,,0.03,Rainwise +Telemet,2016-12-04 13:50:00,
2016-12-04 08:00:00,62.5,62.2,29.93,SW,225,2.3,3.1,99,-99.99,,,0.03,Rainwise +Telemet,2016-12-04 14:00:00,
2016-12-04 08:05:00,62.7,62.7,29.93,SW,225,1.6,2.6,100,-99.99,,,0.03,Rainwise +Telemet,2016-12-04 14:05:00,
2016-12-04 08:10:00,62.9,62.9,29.93,SW,225,2.6,3.5,100,-99.99,,,0.03,Rainwise +Telemet,2016-12-04 14:10:00,
2016-12-04 08:20:00,63.4,63.4,29.94,WSW,247,0.5,1.2,100,-99.99,,,0.03,Rainwise +Telemet,2016-12-04 14:20:00,
2016-12-04 08:30:00,64.0,63.7,29.95,SW,225,2.3,3.6,99,-99.99,,,0.03,Rainwise +Telemet,2016-12-04 14:30:00,
2016-12-04 08:40:00,64.4,64.1,29.95,SW,225,0.1,0.3,99,-99.99,,,0.03,Rainwise +Telemet,2016-12-04 14:40:00,
2016-12-04 08:45:00,64.8,64.8,29.95,SW,225,0.2,0.9,100,-99.99,,,0.03,Rainwise +Telemet,2016-12-04 14:45:00,
2016-12-04 08:50:00,65.2,65.2,29.96,WSW,247,1.1,1.7,100,-99.99,,,0.03,Rainwise +Telemet,2016-12-04 14:50:00,
2016-12-04 09:00:00,65.4,65.4,29.96,WSW,247,1.8,2.9,100,-99.99,,,0.03,Rainwise +Telemet,2016-12-04 15:00:00,
2016-12-04 09:10:00,66.3,66.3,29.96,West,270,0.3,0.9,100,-99.99,,,0.03,Rainwise +Telemet,2016-12-04 15:10:00,
2016-12-04 09:20:00,66.0,65.4,29.97,North,11,6.0,8.4,98,-99.99,,,0.03,Rainwise +Telemet,2016-12-04 15:20:00,
2016-12-04 09:30:00,64.0,63.4,29.96,NNW,337,1.6,2.9,98,-99.99,,,0.03,Rainwise +Telemet,2016-12-04 15:30:00,
2016-12-04 09:40:00,63.7,62.8,29.97,North,5,4.3,5.1,97,-99.99,,,0.03,Rainwise +Telemet,2016-12-04 15:40:00,
2016-12-04 09:45:00,63.6,63.0,29.97,North,7,3.5,4.5,98,-99.99,,,0.03,Rainwise +Telemet,2016-12-04 15:45:00,
2016-12-04 09:50:00,63.3,62.7,29.97,NE,45,2.1,2.9,98,-99.99,,,0.03,Rainwise +Telemet,2016-12-04 15:50:00,
2016-12-04 09:55:00,63.2,62.3,29.97,North,360,1.9,3.3,97,-99.99,,,0.03,Rainwise +Telemet,2016-12-04 15:55:00,
2016-12-04 10:00:00,63.3,62.7,29.96,NNE,22,3.8,5.5,98,-99.99,,,0.03,Rainwise +Telemet,2016-12-04 16:00:00,
2016-12-04 10:10:00,63.3,62.4,29.96,NE,45,0.7,1.2,97,-99.99,,,0.03,Rainwise +Telemet,2016-12-04 16:10:00,
2016-12-04 10:20:00,63.6,63.0,29.96,NNE,22,2.9,3.9,98,-99.99,,,0.03,Rainwise +Telemet,2016-12-04 16:20:00,
2016-12-04 10:25:00,63.6,63.0,29.96,ENE,67,0.0,0.0,98,-99.99,,,0.03,Rainwise +Telemet,2016-12-04 16:25:00,
2016-12-04 10:30:00,63.8,63.2,29.96,ENE,67,0.6,1.1,98,-99.99,,,0.03,Rainwise +Telemet,2016-12-04 16:30:00,
2016-12-04 10:40:00,64.3,63.4,29.96,NNW,330,0.7,1.3,97,-99.99,,,0.03,Rainwise +Telemet,2016-12-04 16:40:00,
2016-12-04 10:45:00,64.6,63.7,29.96,NNE,22,1.4,2.5,97,-99.99,,,0.03,Rainwise +Telemet,2016-12-04 16:45:00,
2016-12-04 10:50:00,64.8,63.9,29.96,NE,43,2.7,3.5,97,-99.99,,,0.03,Rainwise +Telemet,2016-12-04 16:50:00,
2016-12-04 10:55:00,64.7,63.5,29.95,NNE,22,2.7,3.3,96,-99.99,,,0.03,Rainwise +Telemet,2016-12-04 16:55:00,
2016-12-04 11:00:00,64.5,63.3,29.95,NE,45,1.9,2.2,96,-99.99,,,0.05,Rainwise +Telemet,2016-12-04 17:00:00,
2016-12-04 11:08:00,64.2,62.7,0.00,NE,45,0.0,0.0,95,-99.99,,,0.05,Rainwise +Telemet,2016-12-04 17:08:00,
2016-12-04 11:10:00,64.2,62.7,29.95,NE,45,0.0,0.0,95,-99.99,,,0.05,Rainwise +Telemet,2016-12-04 17:10:00,